• In Deutschland
  • Länderverzeichnis
  • Für 7 Tage
  • Wassertemperatur
  • Satellitenkarten
  • Wetterkarte
  • Widgets
  • user-avatar
    Anmelden

    Stündliche Wetter Überlingen

    Heute, 16 Dezember, Samstag

    Zeit Temperatur Niederschläge Wind Luftdruck Luftfeuchtigkeit
    00:00 -3°C° 0 mm 2 m/S 712 mmHg 89%
    01:00 -2°C° 0 mm 2 m/S 712 mmHg 86%
    02:00 -2°C° 0,2 mm 2 m/S 712 mmHg 88%
    03:00 -2°C° 0,2 mm 2 m/S 712 mmHg 90%
    04:00 -2°C° 0,2 mm 2 m/S 713 mmHg 91%
    05:00 -2°C° 0,4 mm 2 m/S 713 mmHg 92%
    06:00 -1°C° 0,4 mm 2 m/S 714 mmHg 94%
    07:00 -1°C° 0,4 mm 2 m/S 714 mmHg 95%
    08:00 -1°C° 0,2 mm 2 m/S 715 mmHg 94%
    09:00 +1°C° 0,2 mm 2 m/S 715 mmHg 93%
    10:00 +1°C° 0,2 mm 2 m/S 716 mmHg 92%
    11:00 +1°C° 0,3 mm 2 m/S 716 mmHg 92%
    12:00 +1°C° 0,3 mm 3 m/S 717 mmHg 92%
    13:00 +1°C° 0,3 mm 3 m/S 717 mmHg 92%
    14:00 +1°C° 0,5 mm 3 m/S 718 mmHg 92%
    15:00 +1°C° 0,5 mm 3 m/S 718 mmHg 92%
    16:00 +1°C° 0,5 mm 3 m/S 719 mmHg 92%
    17:00 0°C° 0,4 mm 3 m/S 720 mmHg 93%
    18:00 -1°C° 0,4 mm 3 m/S 720 mmHg 94%
    19:00 -1°C° 0,4 mm 3 m/S 721 mmHg 94%
    20:00 -1°C° 0,2 mm 3 m/S 722 mmHg 95%
    21:00 -1°C° 0,2 mm 3 m/S 722 mmHg 95%
    22:00 -1°C° 0,2 mm 3 m/S 723 mmHg 95%
    23:00 -1°C° 0,3 mm 2 m/S 723 mmHg 95%

    Morgen, 17 Dezember, Sonntag

    Zeit Temperatur Niederschläge Wind Luftdruck Luftfeuchtigkeit
    00:00 -1°C° 0,3 mm 2 m/S 723 mmHg 95%
    01:00 -1°C° 0,3 mm 2 m/S 724 mmHg 96%
    02:00 -1°C° 0,4 mm 2 m/S 724 mmHg 96%
    03:00 -1°C° 0,4 mm 2 m/S 724 mmHg 96%
    04:00 -1°C° 0,4 mm 3 m/S 725 mmHg 96%
    05:00 -2°C° 0,3 mm 3 m/S 725 mmHg 95%
    06:00 -2°C° 0,3 mm 3 m/S 725 mmHg 95%
    07:00 -2°C° 0,3 mm 3 m/S 726 mmHg 95%
    08:00 -2°C° 0,1 mm 3 m/S 726 mmHg 94%
    09:00 -2°C° 0,1 mm 3 m/S 727 mmHg 93%
    10:00 -2°C° 0,1 mm 3 m/S 727 mmHg 91%
    11:00 -1°C° 0,1 mm 3 m/S 727 mmHg 90%
    12:00 -1°C° 0,1 mm 3 m/S 727 mmHg 88%
    13:00 0°C° 0,1 mm 3 m/S 728 mmHg 87%
    14:00 -1°C° 0,1 mm 3 m/S 728 mmHg 88%
    15:00 -1°C° 0,1 mm 2 m/S 728 mmHg 89%
    16:00 -2°C° 0,1 mm 2 m/S 728 mmHg 91%
    17:00 -2°C° 0 mm 2 m/S 729 mmHg 91%
    18:00 -3°C° 0 mm 2 m/S 730 mmHg 92%
    19:00 -4°C° 0 mm 2 m/S 731 mmHg 93%
    20:00 -4°C° 0 mm 2 m/S 731 mmHg 93%
    21:00 -4°C° 0 mm 2 m/S 731 mmHg 93%
    22:00 -5°C° 0 mm 2 m/S 732 mmHg 93%
    23:00 -5°C° 0 mm 2 m/S 731 mmHg 92%

    übermorgen, 18 Dezember, Montag

    Zeit Temperatur Niederschläge Wind Luftdruck Luftfeuchtigkeit
    00:00 -5°C° 0 mm 2 m/S 731 mmHg 92%
    01:00 -6°C° 0 mm 2 m/S 731 mmHg 92%
    02:00 -6°C° 0 mm 3 m/S 731 mmHg 90%
    03:00 -5°C° 0 mm 3 m/S 730 mmHg 88%
    04:00 -5°C° 0 mm 3 m/S 730 mmHg 87%
    05:00 -5°C° 0,4 mm 4 m/S 729 mmHg 88%
    06:00 -4°C° 0,4 mm 4 m/S 728 mmHg 90%
    07:00 -5°C° 0,4 mm 5 m/S 728 mmHg 92%
    08:00 -4°C° 1,5 mm 5 m/S 727 mmHg 93%
    09:00 -2°C° 1,5 mm 5 m/S 726 mmHg 93%
    10:00 -2°C° 1,5 mm 5 m/S 726 mmHg 94%
    11:00 -1°C° 0,8 mm 5 m/S 726 mmHg 95%
    12:00 0°C° 0,8 mm 5 m/S 725 mmHg 95%
    13:00 0°C° 0,8 mm 5 m/S 725 mmHg 96%
    14:00 0°C° 0,7 mm 4 m/S 725 mmHg 95%
    15:00 0°C° 0,7 mm 4 m/S 726 mmHg 95%
    16:00 +1°C° 0,7 mm 3 m/S 726 mmHg 95%
    17:00 +1°C° 0,2 mm 2 m/S 727 mmHg 95%
    18:00 +1°C° 0,2 mm 2 m/S 728 mmHg 94%
    19:00 +1°C° 0,2 mm 1 m/S 728 mmHg 94%
    20:00 +1°C° 0 mm 1 m/S 729 mmHg 95%
    21:00 0°C° 0 mm 1 m/S 730 mmHg 95%
    22:00 -1°C° 0 mm 1 m/S 730 mmHg 95%
    23:00 -2°C° 0 mm 0 m/S 731 mmHg 95%

    19 Dezember, Dienstag

    Zeit Temperatur Niederschläge Wind Luftdruck Luftfeuchtigkeit
    00:00 -2°C° 0 mm 0 m/S 731 mmHg 95%
    01:00 -2°C° 0 mm 0 m/S 732 mmHg 96%
    02:00 -2°C° 0 mm 0 m/S 732 mmHg 95%
    03:00 -2°C° 0 mm 1 m/S 733 mmHg 95%
    04:00 -2°C° 0 mm 1 m/S 733 mmHg 95%
    05:00 -2°C° 0 mm 1 m/S 733 mmHg 95%
    06:00 -2°C° 0 mm 1 m/S 734 mmHg 95%
    07:00 -2°C° 0 mm 1 m/S 734 mmHg 94%
    08:00 -1°C° 0 mm 1 m/S 734 mmHg 94%
    09:00 -1°C° 0 mm 1 m/S 735 mmHg 94%
    10:00 -1°C° 0 mm 0 m/S 735 mmHg 93%
    11:00 0°C° 0 mm 0 m/S 735 mmHg 94%
    12:00 +1°C° 0 mm 0 m/S 734 mmHg 94%
    13:00 +1°C° 0 mm 0 m/S 734 mmHg 95%
    14:00 +2°C° 0 mm 1 m/S 734 mmHg 95%
    15:00 +2°C° 0 mm 1 m/S 734 mmHg 95%
    16:00 +1°C° 0 mm 1 m/S 734 mmHg 96%
    17:00 +1°C° 0 mm 1 m/S 735 mmHg 96%
    18:00 0°C° 0 mm 0 m/S 735 mmHg 95%
    19:00 0°C° 0 mm 0 m/S 736 mmHg 95%
    20:00 -1°C° 0 mm 0 m/S 736 mmHg 95%
    21:00 -1°C° 0 mm 0 m/S 736 mmHg 95%
    22:00 -1°C° 0 mm 0 m/S 737 mmHg 94%
    23:00 -2°C° 0 mm 0 m/S 737 mmHg 94%

    20 Dezember, Mittwoch

    Zeit Temperatur Niederschläge Wind Luftdruck Luftfeuchtigkeit
    00:00 -2°C° 0 mm 0 m/S 736 mmHg 94%
    01:00 -2°C° 0 mm 1 m/S 736 mmHg 94%
    02:00 -3°C° 0 mm 1 m/S 736 mmHg 93%
    03:00 -3°C° 0 mm 1 m/S 736 mmHg 93%
    04:00 -4°C° 0 mm 0 m/S 736 mmHg 93%
    05:00 -3°C° 0 mm 1 m/S 736 mmHg 92%
    06:00 -3°C° 0 mm 1 m/S 737 mmHg 92%
    07:00 -3°C° 0 mm 1 m/S 737 mmHg 92%
    08:00 -2°C° 0 mm 1 m/S 737 mmHg 91%
    09:00 -1°C° 0 mm 1 m/S 737 mmHg 91%
    10:00 0°C° 0 mm 1 m/S 737 mmHg 91%
    11:00 +1°C° 0 mm 1 m/S 737 mmHg 92%
    12:00 +2°C° 0 mm 1 m/S 737 mmHg 92%
    13:00 +3°C° 0 mm 1 m/S 736 mmHg 93%
    14:00 +3°C° 0 mm 1 m/S 736 mmHg 93%
    15:00 +3°C° 0 mm 1 m/S 736 mmHg 92%
    16:00 +2°C° 0 mm 1 m/S 736 mmHg 92%
    17:00 +2°C° 0 mm 1 m/S 737 mmHg 91%
    18:00 +1°C° 0 mm 1 m/S 737 mmHg 91%
    19:00 +1°C° 0 mm 1 m/S 737 mmHg 90%
    20:00 +1°C° 0 mm 1 m/S 738 mmHg 90%
    21:00 +2°C° 0 mm 1 m/S 738 mmHg 90%
    22:00 +2°C° 0 mm 1 m/S 738 mmHg 90%
    23:00 +2°C° 0 mm 1 m/S 738 mmHg 90%

    21 Dezember, Donnerstag

    Zeit Temperatur Niederschläge Wind Luftdruck Luftfeuchtigkeit
    00:00 +3°C° 0 mm 1 m/S 738 mmHg 91%
    01:00 +3°C° 0 mm 1 m/S 738 mmHg 91%
    02:00 +3°C° 0 mm 1 m/S 738 mmHg 91%
    03:00 +2°C° 0 mm 2 m/S 738 mmHg 91%
    04:00 +2°C° 0 mm 2 m/S 738 mmHg 91%
    05:00 +2°C° 0 mm 2 m/S 738 mmHg 92%
    06:00 +2°C° 0 mm 2 m/S 738 mmHg 92%
    07:00 +3°C° 0 mm 1 m/S 737 mmHg 93%
    08:00 +2°C° 0,1 mm 2 m/S 738 mmHg 94%
    09:00 +3°C° 0,1 mm 2 m/S 738 mmHg 96%
    10:00 +3°C° 0,1 mm 2 m/S 738 mmHg 97%
    11:00 +3°C° 0 mm 2 m/S 737 mmHg 98%
    12:00 +4°C° 0 mm 2 m/S 737 mmHg 98%
    13:00 +4°C° 0 mm 2 m/S 737 mmHg 98%
    14:00 +4°C° 0 mm 2 m/S 737 mmHg 98%
    15:00 +4°C° 0 mm 2 m/S 737 mmHg 98%
    16:00 +3°C° 0 mm 2 m/S 737 mmHg 98%
    17:00 +3°C° 0 mm 2 m/S 737 mmHg 97%
    18:00 +3°C° 0 mm 2 m/S 737 mmHg 97%
    19:00 +3°C° 0 mm 2 m/S 737 mmHg 96%
    20:00 +3°C° 0 mm 2 m/S 737 mmHg 96%
    21:00 +3°C° 0 mm 2 m/S 737 mmHg 96%
    22:00 +3°C° 0 mm 2 m/S 737 mmHg 96%
    23:00 +3°C° 0 mm 2 m/S 737 mmHg 96%
    Mehr zeigen

    XHprof extension not loaded